Showing default

FLOCK 4BE 5, 60559

Orbit data source: Space-Track

FLOCK 4BE 5, 60559 is a payload satellite owned by Planet (US) in SSO that was launched on Fri, 16 Aug 2024 UTC via an FALCON 9 launch vehicle from the Air Force Western Test Range (AFWTR). Payload-class satellites include a variety of spacecraft equipped with specific instruments for various scientific and technological missions. These include communications satellites like Starlink; space stations such as the ISS; scientific satellites like the Hubble; Earth observation satellites from companies like Planet Labs, Umbra, and HawkEye 360; GPS; miniature CubeSats for education and research; and military/defense satellites.

Loading next visibility...
Identifier
60559, 2024-149CV
Orbit
SSO
Country
Flag of USUS
Related business
Manufacturer
Planet
Mission
Operational Commercial Imaging
Bus & Motor
CUBESAT 3U, Unknown motor
Mass
5.7 kg wet, 5.7 kg dry
Launch date (UTC)
2024-08-16 (2 years ago)
Launch vehicle
FALCON 9
Launch site
Air Force Western Test Range (AFWTR)
Object type
Payload
Rocket body
Debris
Shape & HBR
Box + 2 Pan, 1.0 m
Radar Cross Section
0.072 m², Medium (>0.1 m² and < 1m²)

Expand to show TLE details & history
Last TLE update: 8 hours ago

TLE from 8 hours ago
0 FLOCK 4BE 5
1 60559U 24149CV  26257.54212422  .00031203  00000-0  70532-3 0  9998
2 60559  97.3797 342.5392 0002252 342.6934  17.4237 15.43114783116042
Epoch: 2026-09-14T13:00Z
TLE epoch observation values (Epoch: 2026-09-14T13:00:39.532Z)
Latitude
0.00001°
Longitude
153.85355°
Altitude
438.581 km
Speed
7.65 km/s
True Right ascension
22h 50m 09s
True Declination
0° 00' 00"
Sunlit
Object was in full shadow at epoch
Visualization orbit readout
Latitude
Unknown
Longitude
Unknown
Altitude
Unknown
Speed
Unknown
Apparent Right ascension
Unknown
Apparent Declination
Unknown
Sunlit
N/A
Visualization observer readout
Local Sidereal Time
13:07:20
Azimuth
Unknown
Elevation
Unknown
Doppler factor
Unknown
Orbital elements
Apogee altitude
435.391 km
Perigee altitude
432.323 km
Semi-major axis
6,811.994 km
Eccentricity
0.00023
Inclination
97.3797°
RAAN
342.5392°
Arg. of periapsis
342.6934°
True anomaly
17.43143°
Mean anomaly
17.4237°
Eccentric anomaly
17.42756°
Mean motion
3.8604 °/min
Orbital period
93.25 mins
BSTAR
0.00070532
Loading maneuver chart data...
Computing Atmospheric mass density...
Loading historical data...
Loading historical data...
Loading historical data...
Loading historical data...
Loading historical data...
Loading historical data...
Loading historical data...

Documentation

Showing up to 5 results
|